Regional Weather Roundup
Issued by NWS Cleveland, OH

Home | Current Version | Previous Version | Graphics & Text | Print | Product List | Glossary On
Versions: 1 2 3 4 5 6 7 8 9 10 11 12 13 14 15 16 17 18 19 20 21 22 23 24 25 26 27 28 29 30 31 32 33 34 35 36 37 38 39 40 41 42 43 44 45 46 47 48 49 50
000
ASUS41 KCLE 250510
RWRCLE
OHIO REGIONAL WEATHER ROUNDUP
NATIONAL WEATHER SERVICE CLEVELAND, OH
1200 AM EST SAT FEB 25 2017

NOTE: "FAIR" INDICATES FEW OR NO CLOUDS BELOW 12,000 FEET WITH NO
SIGNIFICANT WEATHER AND/OR OBSTRUCTIONS TO VISIBILITY.

OHZ001>008-015>018-024>027-034-035-043-044-250600-
   NORTHWEST OHIO

CITY           SKY/WX    TMP DP  RH WIND       PRES   REMARKS
DEFIANCE       CLOUDY    47  43  86 W10G25    29.55R
FINDLAY        CLOUDY    52  45  77 W21G26    29.53R
TOLEDO EXPRESS CLOUDY    50  48  93 W25G32    29.51R
TOLEDO EXEC    CLOUDY    56  54  93 SW17      29.50R
LIMA           MOCLDY    50  46  86 W22G33    29.55S
$$

OHZ009>014-019>023-028>033-038-089-250600-
   NORTHEAST OHIO

CITY           SKY/WX    TMP DP  RH WIND       PRES   REMARKS
CLE-HOPKINS    TSTM      60  53  77 S13       29.50F
CLE-LAKEFRONT  LGT RAIN  59  54  83 SE13      29.47F
CUY CO. ARPT   NOT AVBL
LORAIN-ELYRIA  RAIN      59  52  77 S15G25    29.47F
ASHTABULA      LGT RAIN  54  46  74 E5        29.53F
AKRON-CANTON   LGT RAIN  60  53  77 NW8       29.54R
WOOSTER        RAIN      58  52  80 SW15G30   29.54S
MANSFIELD      LGT RAIN  58  55  90 SW18      29.53R
YOUNGSTOWN     CLOUDY    66  46  48 S10       29.52F
$$

OHZ042-051>053-060>062-070>072-077>081-250600-
  SOUTHWEST OHIO

CITY           SKY/WX    TMP DP  RH WIND       PRES   REMARKS
CINC-COVINGTON CLOUDY    52  41  66 NW13G25   29.62R
CINC-LUNKEN    CLOUDY    56  41  57 NW7G18    29.63R
HAMILTON       MOCLDY    53  44  71 W9G18     29.63R
DAYTON         CLOUDY    51  45  79 W14       29.60F
WRIGHT-PAT AFB CLOUDY    53  44  72 W15       29.59R
DAYTON GENERAL CLOUDY    52  44  74 NW14      29.60R
WILMINGTON     LGT RAIN  55  49  80 NW20G28   29.58R
$$

OHZ036-037-039>041-045>050-054>059-063>069-073>076-082>088-250600-
  CENTRAL AND SOUTHEAST OHIO

CITY           SKY/WX    TMP DP  RH WIND       PRES   REMARKS
COLUMBUS       RAIN      59  56  89 S8        29.56S
OSU AIRPORT    LGT RAIN  58  57  97 S8        29.55R
BOLTON FIELD   RAIN      58  57  96 SW12      29.56F
RICKENBACK AFB TSTM      56  56  98 SW14      29.57R
NEWARK         LGT RAIN  57  53  86 SW5       29.55F
MARION         CLOUDY    55  51  86 W17G26    29.57R
LANCASTER      TSTM      59  55  87 S8        29.57F FOG
ZANESVILLE     CLOUDY    69  47  45 W23G31    29.57R
NEW PHILLY     NOT AVBL
$$




USA.gov is the U.S. government's official web portal to all federal, state and local government web resources and services.